Location: Wald
(31.7579°N, 86.6655°W)
Time: 12:13:11
(UTC+00:00)

Cosmos 2344 - Pass Details

Date: 14 July 2020
Orbit: 1249 x 2993 km, 63.3° (Epoch: 08 August)

Event Time Altitude Azimuth Distance (km) Brightness Sun altitude
Rises 03:14:34 0° 220° (SW) 4,463 6.3 -24.6°
Reaches altitude 10° 03:17:35 10° 223° (SW) 3,368 5.7 -25.0°
Maximum altitude 03:25:11 60° 303° (WNW) 1,415 4.0 -26.0°
Drops below altitude 10° 03:32:42 10° 23° (NNE) 3,323 6.1 -27.0°
Sets 03:35:42 0° 27° (NNE) 4,401 6.7 -27.4°
